Puerto Plata, Dominican Republic

1:10 PM AST on September 23, 2017 (GMT -0400)
Gregorio Luperon International

Weather History for MDPP - January, 2014

Change the Weather History Date:

Friday, January 17, 2014

  Actual Average Record
Temperature  
Mean Temperature 76 °F -  
Max Temperature 89 °F 80 °F 94 °F (2016)
Min Temperature 62 °F 67 °F 58 °F (2016)
Cooling Degree Days 10    
Growing Degree Days 26 (Base 50)    
Moisture  
Dew Point 69 °F    
Average Humidity 70    
Maximum Humidity 100    
Minimum Humidity 41    
Precipitation  
Precipitation 0.00 in - - ()
Sea Level Pressure  
Sea Level Pressure 29.98 in    
Wind  
Wind Speed 4 mph ()    
Max Wind Speed 14 mph    
Max Gust Speed -    
Visibility 7.2 miles    
Events      
Averages and records for this station are not official NWS values.
T = Trace of Precipitation, MM = Missing Value Source: Averaged Metar Reports

Daily Weather History Graph

Daily Weather History Graph

Search for Another Location

Airport or City:

Trip Planner

Search our weather history database for the weather conditions in past years. The results will help you decide how hot, cold, wet, or windy it might be!

Date:

Astronomy

Jan. 17, 2014 Rise Set
Actual Time 7:19 AM AST 6:25 PM AST
Civil Twilight 6:56 AM AST 6:48 PM AST
Nautical Twilight 6:29 AM AST 7:15 PM AST
Astronomical Twilight 6:02 AM AST 7:42 PM AST
Moon 7:49 PM AST (1/17) 8:02 AM AST (1/17)
Length of Visible Light 11h 52m
Length of Day
11h 05m
Full, 98% of the Moon is Illuminated
Jan 17
Full
Jan 24
Last Quarter
Jan 30
New
Feb 6
First Quarter
Feb 14
Full

Hourly Weather History & Observations

Time (AST) Temp. Heat Index Dew Point Humidity Pressure Visibility Wind Dir Wind Speed Gust Speed Precip Events Conditions
2:00 AM 71 °F - 69 °F 89% 29.98 in 10 mi Calm Calm - -   Scattered Clouds
2:00 AM 71.6 °F - 68.0 °F 88% 29.98 in 6.2 mi Calm Calm - N/A   Scattered Clouds
5:00 AM 69.8 °F - 69.8 °F 100% 29.95 in 6.2 mi Calm Calm - N/A   Partly Cloudy
8:00 AM 66 °F - 65 °F 96% 30.00 in 10 mi Calm Calm - -   Scattered Clouds
8:00 AM 66.2 °F - 64.4 °F 94% 29.98 in 6.2 mi Calm Calm - N/A   Partly Cloudy
9:00 AM 71.6 °F - 68.0 °F 88% 30.01 in 6.2 mi Calm Calm - N/A   Partly Cloudy
10:00 AM 80.6 °F 83.9 °F 69.8 °F 70% 30.01 in 6.2 mi Calm Calm - N/A   Partly Cloudy
11:00 AM 84 °F - 69 °F 51% 30.03 in 10 mi ESE 8.9 mph - -   Scattered Clouds
11:00 AM 84.2 °F 87.3 °F 68.0 °F 58% - 6.2 mi ESE 9.2 mph - N/A   Partly Cloudy
12:00 PM 84.2 °F 86.6 °F 66.2 °F 55% 30.01 in 6.2 mi ESE 13.8 mph - N/A   Partly Cloudy
1:00 PM 84.2 °F 87.3 °F 68.0 °F 58% 29.98 in 6.2 mi ESE 9.2 mph - N/A   Partly Cloudy
2:00 PM 88 °F - 67 °F 41% 29.97 in 10 mi SSE 8.9 mph - -   Scattered Clouds
2:00 PM 87.8 °F 91.4 °F 68.0 °F 52% - 6.2 mi SSE 9.2 mph - N/A   Partly Cloudy
3:00 PM 87.8 °F 90.4 °F 66.2 °F 49% 29.92 in 6.2 mi South 13.8 mph - N/A   Partly Cloudy
4:00 PM 89.6 °F 92.2 °F 66.2 °F 46% 29.92 in 6.2 mi ESE 6.9 mph - N/A   Partly Cloudy
5:00 PM 88 °F - 68 °F 41% 29.92 in 10 mi East 11.2 mph - -   Scattered Clouds
5:00 PM 87.8 °F 91.4 °F 68.0 °F 52% 29.92 in 6.2 mi East 11.5 mph - N/A   Partly Cloudy
6:00 PM 82.4 °F 88.2 °F 73.4 °F 74% 29.95 in 6.2 mi East 11.5 mph - N/A   Partly Cloudy
7:00 PM 78.8 °F - 73.4 °F 83% 29.95 in 6.2 mi Calm Calm - N/A   Partly Cloudy
8:00 PM 77.0 °F - 71.6 °F 83% 29.98 in 6.2 mi East 5.8 mph - N/A   Partly Cloudy
11:00 PM 75 °F - 71 °F 85% 30.03 in 10 mi Calm Calm - -   Scattered Clouds
11:00 PM 75.2 °F - 71.6 °F 89% 30.01 in 6.2 mi Calm Calm - N/A   Partly Cloudy